Previsão horária em Al Jubayl

Hoje, 25 Junho, Sexta-feira

Tempo Temperatura Precipitação Vento Pressão Humidade
00:00 +36°C° 0 mm 2 m/s 749 mmHg 14%
01:00 +35°C° 0 mm 3 m/s 749 mmHg 14%
02:00 +35°C° 0 mm 3 m/s 749 mmHg 14%
03:00 +35°C° 0 mm 3 m/s 749 mmHg 15%
04:00 +35°C° 0 mm 3 m/s 749 mmHg 19%
05:00 +35°C° 0 mm 4 m/s 749 mmHg 24%
06:00 +35°C° 0 mm 4 m/s 749 mmHg 28%
07:00 +37°C° 0 mm 4 m/s 750 mmHg 25%
08:00 +41°C° 0 mm 5 m/s 750 mmHg 22%
09:00 +43°C° 0 mm 5 m/s 750 mmHg 20%
10:00 +45°C° 0 mm 5 m/s 750 mmHg 17%
11:00 +46°C° 0 mm 5 m/s 750 mmHg 15%
12:00 +47°C° 0 mm 4 m/s 750 mmHg 13%
13:00 +47°C° 0 mm 4 m/s 749 mmHg 12%
14:00 +46°C° 0 mm 3 m/s 749 mmHg 11%
15:00 +46°C° 0 mm 3 m/s 748 mmHg 10%
16:00 +45°C° 0 mm 3 m/s 748 mmHg 12%
17:00 +42°C° 0 mm 2 m/s 748 mmHg 14%
18:00 +41°C° 0 mm 2 m/s 748 mmHg 16%
19:00 +40°C° 0 mm 2 m/s 748 mmHg 15%
20:00 +39°C° 0 mm 2 m/s 748 mmHg 14%
21:00 +38°C° 0 mm 2 m/s 748 mmHg 13%
22:00 +38°C° 0 mm 2 m/s 748 mmHg 12%
23:00 +38°C° 0 mm 2 m/s 748 mmHg 11%

Amanhã, 26 Junho, Sábado

Tempo Temperatura Precipitação Vento Pressão Humidade
00:00 +37°C° 0 mm 3 m/s 748 mmHg 11%
01:00 +37°C° 0 mm 3 m/s 748 mmHg 11%
02:00 +37°C° 0 mm 3 m/s 748 mmHg 11%
03:00 +36°C° 0 mm 3 m/s 747 mmHg 11%
04:00 +36°C° 0 mm 3 m/s 747 mmHg 11%
05:00 +37°C° 0 mm 3 m/s 748 mmHg 11%
06:00 +37°C° 0 mm 3 m/s 748 mmHg 11%
07:00 +39°C° 0 mm 3 m/s 748 mmHg 10%
08:00 +43°C° 0 mm 4 m/s 748 mmHg 9%
09:00 +47°C° 0 mm 5 m/s 749 mmHg 8%
10:00 +47°C° 0 mm 5 m/s 748 mmHg 9%
11:00 +48°C° 0 mm 5 m/s 748 mmHg 9%
12:00 +49°C° 0 mm 5 m/s 748 mmHg 10%
13:00 +49°C° 0 mm 5 m/s 748 mmHg 12%
14:00 +48°C° 0 mm 5 m/s 747 mmHg 13%
15:00 +48°C° 0 mm 5 m/s 747 mmHg 14%
16:00 +44°C° 0 mm 4 m/s 747 mmHg 21%
17:00 +42°C° 0 mm 4 m/s 747 mmHg 28%
18:00 +40°C° 0 mm 4 m/s 747 mmHg 35%
19:00 +38°C° 0 mm 4 m/s 748 mmHg 36%
20:00 +37°C° 0 mm 3 m/s 748 mmHg 37%
21:00 +36°C° 0 mm 3 m/s 748 mmHg 37%
22:00 +36°C° 0 mm 3 m/s 748 mmHg 33%
23:00 +36°C° 0 mm 3 m/s 748 mmHg 29%

Depois de amanhã, 27 Junho, Domingo

Tempo Temperatura Precipitação Vento Pressão Humidade
00:00 +36°C° 0 mm 3 m/s 748 mmHg 25%
01:00 +36°C° 0 mm 3 m/s 748 mmHg 26%
02:00 +35°C° 0 mm 3 m/s 748 mmHg 27%
03:00 +35°C° 0 mm 3 m/s 748 mmHg 27%
04:00 +35°C° 0 mm 3 m/s 748 mmHg 25%
05:00 +35°C° 0 mm 2 m/s 749 mmHg 22%
06:00 +36°C° 0 mm 2 m/s 749 mmHg 19%
07:00 +39°C° 0 mm 2 m/s 749 mmHg 16%
08:00 +41°C° 0 mm 1 m/s 750 mmHg 12%
09:00 +44°C° 0 mm 1 m/s 750 mmHg 8%
10:00 +47°C° 0 mm 2 m/s 750 mmHg 8%
11:00 +49°C° 0 mm 4 m/s 750 mmHg 8%
12:00 +50°C° 0 mm 5 m/s 750 mmHg 8%
13:00 +49°C° 0 mm 5 m/s 749 mmHg 10%
14:00 +49°C° 0 mm 6 m/s 749 mmHg 12%
15:00 +48°C° 0 mm 6 m/s 749 mmHg 14%
16:00 +46°C° 0 mm 6 m/s 749 mmHg 19%
17:00 +43°C° 0 mm 5 m/s 749 mmHg 23%
18:00 +41°C° 0 mm 5 m/s 749 mmHg 27%
19:00 +40°C° 0 mm 5 m/s 749 mmHg 31%
20:00 +39°C° 0 mm 5 m/s 750 mmHg 34%
21:00 +36°C° 0 mm 4 m/s 750 mmHg 38%
22:00 +36°C° 0 mm 4 m/s 750 mmHg 37%
23:00 +36°C° 0 mm 4 m/s 750 mmHg 36%

28 Junho, Segunda-feira

Tempo Temperatura Precipitação Vento Pressão Humidade
00:00 +36°C° 0 mm 4 m/s 749 mmHg 36%
01:00 +35°C° 0 mm 4 m/s 749 mmHg 36%
02:00 +35°C° 0 mm 4 m/s 749 mmHg 36%
03:00 +34°C° 0 mm 4 m/s 749 mmHg 37%
04:00 +34°C° 0 mm 4 m/s 750 mmHg 36%
05:00 +35°C° 0 mm 4 m/s 750 mmHg 35%
06:00 +35°C° 0 mm 4 m/s 751 mmHg 35%
07:00 +38°C° 0 mm 3 m/s 751 mmHg 27%
08:00 +42°C° 0 mm 3 m/s 751 mmHg 20%
09:00 +45°C° 0 mm 2 m/s 751 mmHg 13%
10:00 +46°C° 0 mm 3 m/s 751 mmHg 13%
11:00 +48°C° 0 mm 4 m/s 751 mmHg 12%
12:00 +49°C° 0 mm 5 m/s 751 mmHg 12%
13:00 +49°C° 0 mm 5 m/s 751 mmHg 14%
14:00 +48°C° 0 mm 6 m/s 750 mmHg 16%
15:00 +47°C° 0 mm 6 m/s 750 mmHg 18%
16:00 +45°C° 0 mm 6 m/s 750 mmHg 24%
17:00 +42°C° 0 mm 6 m/s 750 mmHg 30%
18:00 +40°C° 0 mm 6 m/s 750 mmHg 37%
19:00 +39°C° 0 mm 5 m/s 750 mmHg 39%
20:00 +37°C° 0 mm 5 m/s 750 mmHg 41%
21:00 +36°C° 0 mm 4 m/s 750 mmHg 44%
22:00 +36°C° 0 mm 4 m/s 750 mmHg 42%
23:00 +36°C° 0 mm 4 m/s 750 mmHg 41%

29 Junho, Terça-feira

Tempo Temperatura Precipitação Vento Pressão Humidade
00:00 +35°C° 0 mm 3 m/s 749 mmHg 40%
01:00 +35°C° 0 mm 3 m/s 749 mmHg 38%
02:00 +35°C° 0 mm 3 m/s 749 mmHg 37%
03:00 +34°C° 0 mm 2 m/s 749 mmHg 35%
04:00 +35°C° 0 mm 2 m/s 749 mmHg 32%
05:00 +35°C° 0 mm 2 m/s 750 mmHg 28%
06:00 +36°C° 0 mm 2 m/s 750 mmHg 25%
07:00 +38°C° 0 mm 3 m/s 751 mmHg 21%
08:00 +40°C° 0 mm 3 m/s 751 mmHg 18%
09:00 +44°C° 0 mm 3 m/s 751 mmHg 15%
10:00 +45°C° 0 mm 3 m/s 751 mmHg 13%
11:00 +47°C° 0 mm 3 m/s 751 mmHg 12%
12:00 +48°C° 0 mm 3 m/s 750 mmHg 10%
13:00 +49°C° 0 mm 4 m/s 750 mmHg 11%
14:00 +48°C° 0 mm 4 m/s 750 mmHg 12%
15:00 +48°C° 0 mm 5 m/s 749 mmHg 14%
16:00 +46°C° 0 mm 5 m/s 749 mmHg 19%
17:00 +43°C° 0 mm 4 m/s 749 mmHg 24%
18:00 +41°C° 0 mm 4 m/s 749 mmHg 30%
19:00 +40°C° 0 mm 4 m/s 749 mmHg 35%
20:00 +37°C° 0 mm 3 m/s 750 mmHg 40%
21:00 +36°C° 0 mm 3 m/s 750 mmHg 45%
22:00 +35°C° 0 mm 3 m/s 750 mmHg 45%
23:00 +35°C° 0 mm 3 m/s 749 mmHg 45%

30 Junho, Quarta-feira

Tempo Temperatura Precipitação Vento Pressão Humidade
00:00 +35°C° 0 mm 4 m/s 749 mmHg 45%
01:00 +35°C° 0 mm 3 m/s 749 mmHg 43%
02:00 +34°C° 0 mm 3 m/s 749 mmHg 40%
03:00 +34°C° 0 mm 3 m/s 749 mmHg 38%
04:00 +35°C° 0 mm 3 m/s 749 mmHg 34%
05:00 +35°C° 0 mm 2 m/s 750 mmHg 31%
06:00 +36°C° 0 mm 2 m/s 750 mmHg 27%
07:00 +38°C° 0 mm 2 m/s 751 mmHg 22%
08:00 +41°C° 0 mm 2 m/s 751 mmHg 18%
09:00 +45°C° 0 mm 2 m/s 751 mmHg 13%
10:00 +46°C° 0 mm 2 m/s 751 mmHg 12%
11:00 +47°C° 0 mm 3 m/s 750 mmHg 11%
12:00 +50°C° 0 mm 3 m/s 750 mmHg 9%
13:00 +49°C° 0 mm 4 m/s 750 mmHg 10%
14:00 +49°C° 0 mm 4 m/s 749 mmHg 11%
15:00 +49°C° 0 mm 4 m/s 749 mmHg 13%
16:00 +47°C° 0 mm 4 m/s 749 mmHg 17%
17:00 +44°C° 0 mm 4 m/s 749 mmHg 21%
18:00 +42°C° 0 mm 4 m/s 749 mmHg 25%
19:00 +39°C° 0 mm 3 m/s 749 mmHg 29%
20:00 +38°C° 0 mm 3 m/s 750 mmHg 33%
21:00 +36°C° 0 mm 2 m/s 750 mmHg 37%
22:00 +36°C° 0 mm 2 m/s 750 mmHg 36%
23:00 +36°C° 0 mm 2 m/s 749 mmHg 36%
Mostrar mais